TAM7198 SBGR-SCEL

Flight info

Callsign TAM7198
Flight time N/A
Altitude 30000
Route UBSOD UZ38 ARTUT UM400 SOTSA/N0456F320 UM400 CBA UZ105 UMKAL UMKAL7C
Aircraft A321/M-SDE3FGHIRWY/LB1

Departure

Time 2026-04-30 12:49
Airport São Paulo/Guarulhos–Governor André Franco Montoro International Airport (SBGR)

Arrival

Time N/A
Airport Comodoro Arturo Merino Benítez International Airport (SCEL)
Time Latitude Longitude Altitude Speed Heading
2026-04-30 12:32 -23.42769 -46.47408 2465 ft 0 kts 74°
2026-04-30 12:40 -23.42773 -46.47422 2464 ft 2 kts 74°
2026-04-30 12:41 -23.42778 -46.47439 2464 ft 2 kts 73°
2026-04-30 12:41 -23.42782 -46.47456 2467 ft 2 kts 73°
2026-04-30 12:41 -23.42787 -46.47473 2466 ft 2 kts 73°
2026-04-30 12:41 -23.42792 -46.47491 2464 ft 2 kts 78°
2026-04-30 12:42 -23.42792 -46.47509 2464 ft 2 kts 124°
2026-04-30 12:42 -23.42785 -46.47518 2464 ft 2 kts 147°
2026-04-30 12:42 -23.42770 -46.47527 2466 ft 2 kts 160°
2026-04-30 12:42 -23.42759 -46.47531 2464 ft 1 kts 163°
2026-04-30 12:43 -23.42758 -46.47531 2464 ft 0 kts 163°
2026-04-30 12:44 -23.42766 -46.47529 2465 ft 3 kts 163°
2026-04-30 12:44 -23.42795 -46.47519 2470 ft 6 kts 163°
2026-04-30 12:45 -23.42847 -46.47502 2470 ft 10 kts 162°
2026-04-30 12:45 -23.42919 -46.47473 2464 ft 11 kts 159°
2026-04-30 12:45 -23.42983 -46.47448 2468 ft 8 kts 165°
2026-04-30 12:45 -23.43018 -46.47473 2466 ft 5 kts 232°
2026-04-30 12:46 -23.43030 -46.47500 2464 ft 3 kts 250°
2026-04-30 12:46 -23.43039 -46.47532 2467 ft 6 kts 253°
2026-04-30 12:46 -23.43053 -46.47586 2464 ft 9 kts 254°
2026-04-30 12:46 -23.43073 -46.47662 2468 ft 12 kts 254°
2026-04-30 12:47 -23.43098 -46.47756 2470 ft 14 kts 253°
2026-04-30 12:47 -23.43128 -46.47866 2467 ft 16 kts 253°
2026-04-30 12:47 -23.43162 -46.47989 2466 ft 19 kts 253°
2026-04-30 12:47 -23.43201 -46.48136 2471 ft 20 kts 253°
2026-04-30 12:48 -23.43241 -46.48284 2470 ft 20 kts 253°
2026-04-30 12:48 -23.43345 -46.48350 2466 ft 20 kts 171°
2026-04-30 12:48 -23.43408 -46.48256 2464 ft 19 kts 76°
2026-04-30 12:48 -23.43347 -46.48036 2463 ft 56 kts 73°
2026-04-30 12:49 -23.43175 -46.47397 2460 ft 118 kts 73°
2026-04-30 12:49 -23.42894 -46.46362 2471 ft 165 kts 73°
2026-04-30 12:49 -23.42534 -46.45024 2520 ft 199 kts 73°
2026-04-30 12:49 -23.42132 -46.43589 3204 ft 198 kts 72°
2026-04-30 12:50 -23.41712 -46.42170 3812 ft 197 kts 71°
2026-04-30 12:50 -23.41281 -46.40725 3972 ft 210 kts 71°
2026-04-30 12:50 -23.40820 -46.39164 4122 ft 224 kts 72°
2026-04-30 12:50 -23.40334 -46.37491 4237 ft 241 kts 73°
2026-04-30 12:51 -23.40192 -46.35612 4351 ft 263 kts 102°
2026-04-30 12:51 -23.40783 -46.33671 4807 ft 275 kts 111°
2026-04-30 12:51 -23.41444 -46.31694 5415 ft 281 kts 109°
2026-04-30 12:51 -23.42108 -46.29681 5981 ft 283 kts 110°
2026-04-30 12:52 -23.42784 -46.27656 6558 ft 286 kts 113°
2026-04-30 12:52 -23.43916 -46.25897 7062 ft 287 kts 143°
2026-04-30 12:52 -23.45716 -46.25021 7556 ft 286 kts 176°
2026-04-30 12:52 -23.47677 -46.25195 8096 ft 284 kts 193°
2026-04-30 12:53 -23.49628 -46.25612 8618 ft 287 kts 193°
2026-04-30 12:53 -23.51596 -46.26023 9190 ft 289 kts 193°
2026-04-30 12:53 -23.53498 -46.26703 9719 ft 288 kts 211°
2026-04-30 12:53 -23.55092 -46.28000 10210 ft 289 kts 228°
2026-04-30 12:54 -23.56256 -46.29844 10318 ft 304 kts 248°
2026-04-30 12:54 -23.56844 -46.32114 10435 ft 320 kts 259°
2026-04-30 12:54 -23.57300 -46.34520 10562 ft 337 kts 258°
2026-04-30 12:54 -23.57794 -46.37066 10784 ft 348 kts 258°
2026-04-30 12:55 -23.58308 -46.39666 11216 ft 352 kts 258°
2026-04-30 12:55 -23.58829 -46.42284 11677 ft 355 kts 258°
2026-04-30 12:55 -23.59357 -46.44925 12152 ft 358 kts 258°
2026-04-30 12:55 -23.59890 -46.47588 12621 ft 361 kts 258°
2026-04-30 12:56 -23.60424 -46.50266 13105 ft 363 kts 258°
2026-04-30 12:56 -23.60948 -46.52968 13553 ft 366 kts 259°
2026-04-30 12:56 -23.61405 -46.55713 13999 ft 368 kts 261°
2026-04-30 12:56 -23.61807 -46.58476 14373 ft 371 kts 261°
2026-04-30 12:57 -23.62190 -46.61267 14752 ft 373 kts 262°
2026-04-30 12:57 -23.62651 -46.64056 15114 ft 375 kts 255°
2026-04-30 12:57 -23.63558 -46.66730 15466 ft 378 kts 244°
2026-04-30 12:57 -23.64905 -46.69205 15826 ft 381 kts 238°
2026-04-30 12:58 -23.66332 -46.71644 16174 ft 383 kts 238°
2026-04-30 12:58 -23.67767 -46.74106 16532 ft 385 kts 238°
2026-04-30 12:58 -23.69214 -46.76575 16883 ft 388 kts 236°
2026-04-30 12:58 -23.70941 -46.78855 17215 ft 391 kts 225°
2026-04-30 12:59 -23.73050 -46.80745 17525 ft 395 kts 214°
2026-04-30 12:59 -23.75431 -46.82280 17848 ft 398 kts 211°
2026-04-30 12:59 -23.77840 -46.83786 18143 ft 400 kts 211°
2026-04-30 12:59 -23.80262 -46.85309 18432 ft 403 kts 211°
2026-04-30 13:00 -23.82690 -46.86842 18699 ft 404 kts 212°
2026-04-30 13:00 -23.85133 -46.88385 18956 ft 406 kts 212°
2026-04-30 13:00 -23.87581 -46.89933 19228 ft 407 kts 212°
2026-04-30 13:00 -23.90036 -46.91489 19515 ft 409 kts 212°
2026-04-30 13:01 -23.92503 -46.93049 19803 ft 410 kts 212°
2026-04-30 13:01 -23.94968 -46.94608 20092 ft 411 kts 212°
2026-04-30 13:01 -23.97451 -46.96177 20371 ft 412 kts 213°
2026-04-30 13:01 -23.99936 -46.97750 20652 ft 413 kts 213°
2026-04-30 13:02 -24.02427 -46.99329 20944 ft 415 kts 213°
2026-04-30 13:02 -24.04925 -47.00914 21220 ft 416 kts 213°
2026-04-30 13:02 -24.07432 -47.02506 21494 ft 417 kts 213°
2026-04-30 13:02 -24.09945 -47.04102 21771 ft 418 kts 213°
2026-04-30 13:03 -24.12472 -47.05704 22044 ft 420 kts 213°
2026-04-30 13:03 -24.15001 -47.07306 22320 ft 421 kts 213°
2026-04-30 13:03 -24.17537 -47.08916 22593 ft 422 kts 213°
2026-04-30 13:03 -24.20086 -47.10537 22864 ft 424 kts 213°
2026-04-30 13:04 -24.22639 -47.12165 23136 ft 426 kts 214°
2026-04-30 13:04 -24.25201 -47.13801 23403 ft 427 kts 214°
2026-04-30 13:04 -24.27771 -47.15463 23664 ft 428 kts 214°
2026-04-30 13:04 -24.30307 -47.17178 23875 ft 429 kts 216°
2026-04-30 13:05 -24.32829 -47.18940 24096 ft 430 kts 216°
2026-04-30 13:05 -24.35350 -47.20725 24318 ft 432 kts 217°
2026-04-30 13:05 -24.37876 -47.22512 24550 ft 433 kts 216°
2026-04-30 13:06 -24.42965 -47.26087 24997 ft 435 kts 216°
2026-04-30 13:06 -24.45524 -47.27868 25225 ft 436 kts 216°
2026-04-30 13:06 -24.48097 -47.29654 25425 ft 437 kts 216°
2026-04-30 13:06 -24.50670 -47.31445 25658 ft 439 kts 217°
2026-04-30 13:07 -24.53251 -47.33242 25879 ft 440 kts 217°
2026-04-30 13:07 -24.55835 -47.35042 26100 ft 441 kts 217°
2026-04-30 13:07 -24.58392 -47.36824 26306 ft 442 kts 217°
2026-04-30 13:07 -24.60987 -47.38638 26524 ft 443 kts 217°
2026-04-30 13:08 -24.63590 -47.40454 26738 ft 444 kts 217°
2026-04-30 13:08 -24.66200 -47.42275 26955 ft 445 kts 217°
2026-04-30 13:08 -24.68819 -47.44101 27159 ft 446 kts 217°
2026-04-30 13:08 -24.71435 -47.45928 27362 ft 446 kts 218°
2026-04-30 13:09 -24.74060 -47.47764 27558 ft 447 kts 218°
2026-04-30 13:09 -24.76686 -47.49603 27755 ft 448 kts 218°
2026-04-30 13:09 -24.79319 -47.51450 27952 ft 449 kts 218°
2026-04-30 13:09 -24.81953 -47.53295 28154 ft 450 kts 218°
2026-04-30 13:10 -24.84598 -47.55148 28358 ft 451 kts 218°
2026-04-30 13:10 -24.87241 -47.57000 28649 ft 449 kts 218°
2026-04-30 13:10 -24.89871 -47.58842 28936 ft 448 kts 219°
2026-04-30 13:10 -24.92500 -47.60684 29208 ft 447 kts 219°
2026-04-30 13:11 -24.95117 -47.62521 29446 ft 446 kts 219°
2026-04-30 13:11 -24.97735 -47.64364 29703 ft 446 kts 219°
2026-04-30 13:11 -25.00341 -47.66199 29964 ft 445 kts 219°
2026-04-30 13:11 -25.02947 -47.68033 30109 ft 443 kts 219°
2026-04-30 13:12 -25.05524 -47.69840 30126 ft 436 kts 219°
2026-04-30 13:12 -25.10606 -47.73416 30127 ft 432 kts 220°
2026-04-30 13:13 -25.18153 -47.78754 30139 ft 431 kts 220°
2026-04-30 13:14 -25.25730 -47.84107 30126 ft 431 kts 220°
2026-04-30 13:14 -25.33301 -47.89457 30148 ft 430 kts 220°
2026-04-30 13:15 -25.40853 -47.94812 30147 ft 429 kts 220°
2026-04-30 13:16 -25.45876 -47.98384 30148 ft 429 kts 220°
2026-04-30 13:16 -25.50889 -48.01951 30144 ft 428 kts 220°
2026-04-30 13:17 -25.58397 -48.07295 30144 ft 427 kts 220°
2026-04-30 13:17 -25.62136 -48.10781 30144 ft 414 kts 234°
2026-04-30 13:18 -25.64348 -48.14151 30139 ft 405 kts 245°
2026-04-30 13:18 -25.67956 -48.22543 30131 ft 402 kts 249°
2026-04-30 13:19 -25.70350 -48.28159 30127 ft 403 kts 249°
2026-04-30 13:19 -25.72737 -48.33772 30125 ft 403 kts 249°
2026-04-30 13:20 -25.75107 -48.39402 30122 ft 403 kts 249°
2026-04-30 13:20 -25.77483 -48.45037 30129 ft 403 kts 249°
2026-04-30 13:21 -25.79861 -48.50683 30128 ft 404 kts 249°
2026-04-30 13:22 -25.83431 -48.59162 30127 ft 405 kts 249°
2026-04-30 13:22 -25.86995 -48.67657 30135 ft 405 kts 249°
2026-04-30 13:23 -25.90558 -48.76175 30138 ft 406 kts 249°
2026-04-30 13:24 -25.95316 -48.87565 30137 ft 407 kts 249°
2026-04-30 13:25 -26.00074 -48.98975 30131 ft 407 kts 249°
2026-04-30 13:26 -26.05998 -49.13260 30152 ft 409 kts 248°
2026-04-30 13:28 -26.11550 -49.26693 30159 ft 409 kts 249°
2026-04-30 13:28 -26.15122 -49.35317 30160 ft 409 kts 248°
2026-04-30 13:29 -26.19887 -49.46826 30156 ft 409 kts 248°
2026-04-30 13:31 -26.25807 -49.61265 30161 ft 411 kts 249°
2026-04-30 13:32 -26.31703 -49.75788 30165 ft 411 kts 249°
2026-04-30 13:33 -26.36421 -49.87365 30162 ft 412 kts 248°
2026-04-30 13:34 -26.39990 -49.96090 30160 ft 412 kts 248°
2026-04-30 13:35 -26.44741 -50.07735 30158 ft 413 kts 248°
2026-04-30 13:36 -26.49486 -50.19409 30161 ft 413 kts 248°
2026-04-30 13:36 -26.53048 -50.28192 30161 ft 414 kts 248°
2026-04-30 13:37 -26.56601 -50.36993 30164 ft 414 kts 248°
2026-04-30 13:38 -26.60109 -50.45826 30163 ft 415 kts 249°
2026-04-30 13:39 -26.64767 -50.57629 30166 ft 415 kts 249°
2026-04-30 13:40 -26.68329 -50.66484 30166 ft 416 kts 248°
2026-04-30 13:40 -26.70696 -50.72356 30168 ft 416 kts 249°
2026-04-30 13:41 -26.73066 -50.78281 30171 ft 416 kts 249°
2026-04-30 13:41 -26.75414 -50.84170 30169 ft 416 kts 249°
2026-04-30 13:42 -26.77779 -50.90101 30168 ft 417 kts 249°
2026-04-30 13:42 -26.81310 -50.98962 30167 ft 417 kts 249°
2026-04-30 13:43 -26.83668 -51.04902 30163 ft 417 kts 249°
2026-04-30 13:43 -26.86026 -51.10851 30168 ft 417 kts 249°
2026-04-30 13:44 -26.88381 -51.16805 30166 ft 418 kts 249°
2026-04-30 13:44 -26.90715 -51.22717 30167 ft 418 kts 249°
2026-04-30 13:45 -26.94251 -51.31663 30167 ft 418 kts 249°
2026-04-30 13:46 -26.96607 -51.37630 30169 ft 418 kts 249°
2026-04-30 13:46 -26.98958 -51.43606 30169 ft 418 kts 249°
2026-04-30 13:47 -27.01298 -51.49540 30173 ft 418 kts 249°
2026-04-30 13:47 -27.03648 -51.55533 30165 ft 418 kts 249°
2026-04-30 13:48 -27.05987 -51.61524 30163 ft 418 kts 249°
2026-04-30 13:48 -27.08320 -51.67498 30164 ft 418 kts 249°
2026-04-30 13:49 -27.10641 -51.73444 30166 ft 418 kts 249°
2026-04-30 13:49 -27.12972 -51.79420 30163 ft 418 kts 249°
2026-04-30 13:50 -27.15301 -51.85402 30158 ft 418 kts 249°
2026-04-30 13:50 -27.18790 -51.94372 30154 ft 418 kts 249°
2026-04-30 13:51 -27.21110 -52.00358 30148 ft 418 kts 249°
2026-04-30 13:51 -27.23423 -52.06347 30141 ft 418 kts 249°
2026-04-30 13:52 -27.25727 -52.12335 30142 ft 418 kts 250°
2026-04-30 13:52 -27.28034 -52.18328 30137 ft 417 kts 249°
2026-04-30 13:53 -27.30339 -52.24312 30145 ft 417 kts 250°
2026-04-30 13:53 -27.32642 -52.30298 30136 ft 417 kts 250°
2026-04-30 13:54 -27.34939 -52.36281 30133 ft 417 kts 250°
2026-04-30 13:54 -27.37235 -52.42270 30138 ft 417 kts 250°
2026-04-30 13:55 -27.39510 -52.48224 30135 ft 417 kts 250°
2026-04-30 13:55 -27.41795 -52.54224 30132 ft 417 kts 250°
2026-04-30 13:56 -27.44083 -52.60225 30137 ft 417 kts 250°
2026-04-30 13:56 -27.46370 -52.66234 30133 ft 417 kts 250°
2026-04-30 13:57 -27.48655 -52.72244 30121 ft 417 kts 250°
2026-04-30 13:57 -27.50938 -52.78252 30125 ft 417 kts 250°
2026-04-30 13:58 -27.54357 -52.87268 30120 ft 417 kts 250°
2026-04-30 13:59 -27.56630 -52.93280 30120 ft 417 kts 250°
2026-04-30 13:59 -27.58903 -52.99297 30119 ft 417 kts 250°
2026-04-30 14:00 -27.61160 -53.05319 30119 ft 417 kts 250°
2026-04-30 14:00 -27.64557 -53.14351 30120 ft 417 kts 250°
2026-04-30 14:01 -27.66824 -53.20380 30120 ft 417 kts 250°
2026-04-30 14:01 -27.69076 -53.26397 30112 ft 417 kts 250°
2026-04-30 14:02 -27.71308 -53.32389 30115 ft 416 kts 250°
2026-04-30 14:02 -27.73557 -53.38413 30122 ft 416 kts 250°
2026-04-30 14:03 -27.75814 -53.44432 30116 ft 416 kts 250°
2026-04-30 14:03 -27.78064 -53.50459 30111 ft 416 kts 250°
2026-04-30 14:04 -27.80305 -53.56488 30112 ft 417 kts 250°
2026-04-30 14:04 -27.82542 -53.62530 30107 ft 417 kts 250°
2026-04-30 14:05 -27.84776 -53.68569 30110 ft 417 kts 251°
2026-04-30 14:05 -27.87012 -53.74613 30101 ft 417 kts 251°
2026-04-30 14:06 -27.90356 -53.83681 30108 ft 417 kts 251°
2026-04-30 14:07 -27.93712 -53.92756 30116 ft 417 kts 251°
2026-04-30 14:08 -27.97047 -54.01838 30112 ft 417 kts 251°
2026-04-30 14:08 -28.00374 -54.10921 30122 ft 417 kts 251°
2026-04-30 14:09 -28.02595 -54.16977 30120 ft 416 kts 251°
2026-04-30 14:10 -28.05911 -54.26053 30112 ft 416 kts 251°
2026-04-30 14:10 -28.08114 -54.32101 30111 ft 416 kts 251°
2026-04-30 14:11 -28.10317 -54.38154 30104 ft 415 kts 251°
2026-04-30 14:11 -28.12505 -54.44166 30106 ft 415 kts 251°
2026-04-30 14:12 -28.14698 -54.50222 30107 ft 416 kts 251°
2026-04-30 14:12 -28.16891 -54.56287 30099 ft 416 kts 251°
2026-04-30 14:13 -28.19084 -54.62352 30109 ft 416 kts 251°
2026-04-30 14:13 -28.21277 -54.68427 30105 ft 416 kts 251°
2026-04-30 14:14 -28.23466 -54.74499 30107 ft 416 kts 251°
2026-04-30 14:14 -28.25658 -54.80581 30117 ft 416 kts 251°
2026-04-30 14:15 -28.27848 -54.86665 30110 ft 416 kts 251°
2026-04-30 14:15 -28.29657 -54.91720 30107 ft 416 kts 251°
2026-04-30 14:16 -28.31827 -54.97806 30102 ft 416 kts 251°
2026-04-30 14:16 -28.34001 -55.03890 30108 ft 416 kts 251°
2026-04-30 14:17 -28.36179 -55.09976 30102 ft 416 kts 251°
2026-04-30 14:17 -28.38344 -55.16062 30094 ft 416 kts 252°
2026-04-30 14:18 -28.40862 -55.23146 30101 ft 416 kts 252°
2026-04-30 14:18 -28.43756 -55.31303 30091 ft 416 kts 252°
2026-04-30 14:19 -28.46987 -55.40424 30090 ft 415 kts 252°
2026-04-30 14:20 -28.49142 -55.46526 30088 ft 415 kts 252°
2026-04-30 14:20 -28.52360 -55.55640 30081 ft 415 kts 252°
2026-04-30 14:21 -28.54511 -55.61754 30081 ft 416 kts 252°
2026-04-30 14:22 -28.57711 -55.70886 30088 ft 416 kts 252°
2026-04-30 14:22 -28.60928 -55.80072 30090 ft 416 kts 252°
2026-04-30 14:23 -28.65202 -55.92303 30085 ft 416 kts 252°
2026-04-30 14:24 -28.68394 -56.01473 30080 ft 416 kts 252°
2026-04-30 14:25 -28.72639 -56.13706 30087 ft 416 kts 252°
2026-04-30 14:26 -28.75904 -56.22894 30079 ft 416 kts 251°
2026-04-30 14:27 -28.79198 -56.32031 30077 ft 416 kts 252°
2026-04-30 14:27 -28.81384 -56.38165 30082 ft 417 kts 252°
2026-04-30 14:28 -28.84648 -56.47332 30085 ft 417 kts 252°
2026-04-30 14:28 -28.86834 -56.53475 30085 ft 417 kts 252°
2026-04-30 14:29 -28.91186 -56.65728 30087 ft 417 kts 252°
2026-04-30 14:31 -28.96607 -56.81066 30088 ft 417 kts 252°
2026-04-30 14:31 -28.99861 -56.90317 30094 ft 417 kts 252°
2026-04-30 14:32 -29.03094 -56.99513 30097 ft 417 kts 252°
2026-04-30 14:33 -29.05255 -57.05691 30091 ft 417 kts 252°
2026-04-30 14:33 -29.08483 -57.14894 30092 ft 417 kts 252°
2026-04-30 14:34 -29.10642 -57.21059 30091 ft 417 kts 252°
2026-04-30 14:34 -29.12789 -57.27224 30083 ft 417 kts 252°
2026-04-30 14:35 -29.15984 -57.36429 30077 ft 416 kts 252°
2026-04-30 14:36 -29.18129 -57.42592 30081 ft 416 kts 252°
2026-04-30 14:36 -29.20273 -57.48764 30080 ft 416 kts 252°
2026-04-30 14:37 -29.22414 -57.54940 30079 ft 417 kts 252°
2026-04-30 14:37 -29.24531 -57.61089 30079 ft 417 kts 252°
2026-04-30 14:38 -29.26744 -57.67238 30076 ft 418 kts 251°
2026-04-30 14:38 -29.29050 -57.73313 30075 ft 418 kts 250°
2026-04-30 14:39 -29.31372 -57.79436 30070 ft 417 kts 251°
2026-04-30 14:39 -29.33644 -57.85521 30069 ft 417 kts 251°
2026-04-30 14:40 -29.37050 -57.94717 30073 ft 417 kts 251°
2026-04-30 14:40 -29.39331 -58.00856 30076 ft 418 kts 251°
2026-04-30 14:41 -29.41587 -58.06957 30079 ft 418 kts 251°
2026-04-30 14:41 -29.43741 -58.13151 30080 ft 417 kts 253°
2026-04-30 14:42 -29.45720 -58.19409 30076 ft 416 kts 254°
2026-04-30 14:42 -29.47674 -58.25632 30082 ft 416 kts 254°
2026-04-30 14:43 -29.49681 -58.31877 30080 ft 417 kts 253°
2026-04-30 14:43 -29.51708 -58.38110 30080 ft 416 kts 253°
2026-04-30 14:44 -29.53715 -58.44322 30078 ft 416 kts 253°
2026-04-30 14:44 -29.55724 -58.50571 30075 ft 416 kts 253°
2026-04-30 14:45 -29.57720 -58.56775 30074 ft 416 kts 253°
2026-04-30 14:45 -29.59728 -58.63034 30068 ft 416 kts 254°
2026-04-30 14:46 -29.61704 -58.69229 30068 ft 415 kts 254°
2026-04-30 14:46 -29.63693 -58.75476 30070 ft 415 kts 254°
2026-04-30 14:47 -29.65683 -58.81720 30066 ft 415 kts 254°
2026-04-30 14:47 -29.67652 -58.87929 30065 ft 415 kts 254°
2026-04-30 14:48 -29.69681 -58.94170 30059 ft 416 kts 253°
2026-04-30 14:48 -29.71771 -59.00395 30067 ft 416 kts 253°
2026-04-30 14:49 -29.73838 -59.06577 30064 ft 416 kts 253°
2026-04-30 14:49 -29.75904 -59.12820 30063 ft 417 kts 253°
2026-04-30 14:50 -29.78978 -59.22165 30064 ft 417 kts 253°
2026-04-30 14:51 -29.82056 -59.31517 30068 ft 417 kts 253°
2026-04-30 14:52 -29.85139 -59.40901 30076 ft 417 kts 253°
2026-04-30 14:52 -29.88216 -59.50284 30070 ft 417 kts 253°
2026-04-30 14:53 -29.91263 -59.59653 30073 ft 417 kts 253°
2026-04-30 14:54 -29.95344 -59.72207 30184 ft 422 kts 253°
2026-04-30 14:55 -29.97401 -59.78569 30596 ft 423 kts 253°
2026-04-30 14:55 -29.98432 -59.81751 30892 ft 422 kts 253°
2026-04-30 14:55 -30.00479 -59.88069 31493 ft 419 kts 254°
2026-04-30 14:56 -30.02509 -59.94349 32028 ft 417 kts 254°
2026-04-30 14:57 -30.05530 -60.03707 32070 ft 414 kts 254°
2026-04-30 14:58 -30.09515 -60.16150 32073 ft 414 kts 254°
2026-04-30 14:58 -30.12517 -60.25510 32064 ft 414 kts 254°
2026-04-30 15:00 -30.17484 -60.41131 32060 ft 414 kts 254°
2026-04-30 15:01 -30.21458 -60.53631 32060 ft 414 kts 254°
2026-04-30 15:01 -30.24427 -60.63012 32051 ft 414 kts 255°
2026-04-30 15:02 -30.26399 -60.69270 32047 ft 414 kts 255°
2026-04-30 15:03 -30.31322 -60.84921 32047 ft 414 kts 255°
2026-04-30 15:04 -30.36223 -61.00568 32049 ft 415 kts 255°
2026-04-30 15:06 -30.41124 -61.16300 32051 ft 416 kts 255°
2026-04-30 15:07 -30.45067 -61.28900 32049 ft 416 kts 255°
2026-04-30 15:08 -30.48657 -61.40494 32050 ft 416 kts 255°
2026-04-30 15:09 -30.53521 -61.56239 32041 ft 416 kts 255°
2026-04-30 15:10 -30.57407 -61.68879 32043 ft 416 kts 255°
2026-04-30 15:11 -30.63179 -61.87892 32046 ft 416 kts 255°
2026-04-30 15:13 -30.67970 -62.03758 32036 ft 417 kts 255°
2026-04-30 15:14 -30.74651 -62.26011 32040 ft 417 kts 255°
2026-04-30 15:17 -30.83208 -62.54642 32039 ft 417 kts 255°
2026-04-30 15:19 -30.90820 -62.80200 32042 ft 418 kts 256°